When you browse on this site, cookies collect data to enhance your experience and personalize the content and advertising you see.
Visit our Privacy Policy to learn more. By continuing to use the site, you agree to this use of cookies and data.
  • In Belgium
  • List of Countries
  • For 7 days
  • Water Temperature
  • Satellite Maps
  • Weather Map
  • Weather Widgets
  • user-avatar
    Login

    Hourly Weather Kanchanaburi

    Today, 23 February, Saturday

    Time Temperature Precipitation Wind Pressure Humidity
    00:00 +26°C° 0 mm 1 mps 732 mmHg 56%
    01:00 +25°C° 0 mm 1 mps 731 mmHg 58%
    02:00 +25°C° 0 mm 1 mps 731 mmHg 59%
    03:00 +24°C° 0 mm 1 mps 731 mmHg 60%
    04:00 +24°C° 0 mm 1 mps 731 mmHg 61%
    05:00 +24°C° 0 mm 1 mps 731 mmHg 62%
    06:00 +23°C° 0 mm 1 mps 731 mmHg 62%
    07:00 +24°C° 0 mm 1 mps 731 mmHg 64%
    08:00 +27°C° 0 mm 1 mps 732 mmHg 54%
    09:00 +31°C° 0 mm 1 mps 732 mmHg 43%
    10:00 +35°C° 0 mm 1 mps 733 mmHg 33%
    11:00 +37°C° 0 mm 1 mps 732 mmHg 30%
    12:00 +40°C° 0 mm 1 mps 732 mmHg 27%
    13:00 +41°C° 0 mm 1 mps 732 mmHg 25%
    14:00 +40°C° 0 mm 1 mps 731 mmHg 25%
    15:00 +40°C° 0 mm 1 mps 730 mmHg 24%
    16:00 +40°C° 0 mm 1 mps 730 mmHg 23%
    17:00 +36°C° 0 mm 1 mps 730 mmHg 28%
    18:00 +35°C° 0 mm 2 mps 730 mmHg 32%
    19:00 +32°C° 0 mm 2 mps 730 mmHg 37%
    20:00 +30°C° 0 mm 1 mps 731 mmHg 43%
    21:00 +29°C° 0 mm 1 mps 731 mmHg 49%
    22:00 +27°C° 0 mm 1 mps 731 mmHg 55%
    23:00 +27°C° 0 mm 1 mps 731 mmHg 57%

    Tomorrow, 24 February, Sunday

    Time Temperature Precipitation Wind Pressure Humidity
    00:00 +26°C° 0 mm 1 mps 731 mmHg 60%
    01:00 +25°C° 0 mm 1 mps 731 mmHg 62%
    02:00 +25°C° 0 mm 1 mps 731 mmHg 64%
    03:00 +24°C° 0 mm 1 mps 731 mmHg 65%
    04:00 +24°C° 0 mm 1 mps 730 mmHg 67%
    05:00 +24°C° 0 mm 1 mps 730 mmHg 67%
    06:00 +23°C° 0 mm 1 mps 731 mmHg 68%
    07:00 +23°C° 0 mm 1 mps 731 mmHg 69%
    08:00 +27°C° 0 mm 1 mps 731 mmHg 58%
    09:00 +30°C° 0 mm 1 mps 732 mmHg 46%
    10:00 +34°C° 0 mm 1 mps 732 mmHg 35%
    11:00 +36°C° 0 mm 1 mps 732 mmHg 31%
    12:00 +39°C° 0 mm 1 mps 732 mmHg 27%
    13:00 +41°C° 0 mm 1 mps 731 mmHg 23%
    14:00 +41°C° 0 mm 1 mps 730 mmHg 23%
    15:00 +41°C° 0 mm 1 mps 730 mmHg 22%
    16:00 +41°C° 0 mm 1 mps 729 mmHg 22%
    17:00 +37°C° 0 mm 1 mps 729 mmHg 25%
    18:00 +35°C° 0 mm 1 mps 729 mmHg 29%
    19:00 +32°C° 0 mm 1 mps 729 mmHg 33%
    20:00 +31°C° 0 mm 1 mps 730 mmHg 39%
    21:00 +29°C° 0 mm 1 mps 731 mmHg 46%
    22:00 +28°C° 0 mm 1 mps 731 mmHg 52%
    23:00 +27°C° 0 mm 1 mps 731 mmHg 54%

    Day after tomorrow, 25 February, Monday

    Time Temperature Precipitation Wind Pressure Humidity
    00:00 +27°C° 0 mm 1 mps 731 mmHg 57%
    01:00 +26°C° 0 mm 1 mps 731 mmHg 60%
    02:00 +25°C° 0 mm 1 mps 731 mmHg 61%
    03:00 +25°C° 0 mm 1 mps 730 mmHg 62%
    04:00 +24°C° 0 mm 1 mps 730 mmHg 64%
    05:00 +24°C° 0 mm 1 mps 730 mmHg 65%
    06:00 +24°C° 0 mm 1 mps 731 mmHg 66%
    07:00 +24°C° 0 mm 1 mps 731 mmHg 67%
    08:00 +27°C° 0 mm 1 mps 732 mmHg 56%
    09:00 +31°C° 0 mm 1 mps 733 mmHg 45%
    10:00 +34°C° 0 mm 1 mps 733 mmHg 34%
    11:00 +36°C° 0 mm 1 mps 733 mmHg 30%
    12:00 +39°C° 0 mm 1 mps 732 mmHg 27%
    13:00 +40°C° 0 mm 1 mps 731 mmHg 24%
    14:00 +40°C° 0 mm 1 mps 730 mmHg 24%
    15:00 +40°C° 0 mm 1 mps 730 mmHg 23%
    16:00 +40°C° 0 mm 1 mps 729 mmHg 23%
    17:00 +37°C° 0 mm 1 mps 729 mmHg 27%
    18:00 +35°C° 0 mm 1 mps 729 mmHg 32%
    19:00 +33°C° 0 mm 1 mps 730 mmHg 37%
    20:00 +31°C° 0 mm 1 mps 730 mmHg 44%
    21:00 +30°C° 0 mm 1 mps 731 mmHg 51%
    22:00 +28°C° 0 mm 1 mps 732 mmHg 58%
    23:00 +28°C° 0 mm 1 mps 732 mmHg 60%

    26 February, Tuesday

    Time Temperature Precipitation Wind Pressure Humidity
    00:00 +27°C° 0 mm 1 mps 731 mmHg 62%
    01:00 +26°C° 0 mm 1 mps 731 mmHg 64%
    02:00 +26°C° 0 mm 1 mps 731 mmHg 64%
    03:00 +25°C° 0 mm 1 mps 731 mmHg 64%
    04:00 +25°C° 0 mm 1 mps 730 mmHg 64%
    05:00 +24°C° 0 mm 1 mps 730 mmHg 63%
    06:00 +24°C° 0 mm 1 mps 731 mmHg 63%
    07:00 +24°C° 0 mm 1 mps 731 mmHg 62%
    08:00 +28°C° 0 mm 1 mps 732 mmHg 53%
    09:00 +31°C° 0 mm 1 mps 733 mmHg 43%
    10:00 +35°C° 0 mm 1 mps 733 mmHg 33%
    11:00 +37°C° 0 mm 1 mps 733 mmHg 30%
    12:00 +40°C° 0 mm 1 mps 732 mmHg 27%
    13:00 +42°C° 0 mm 1 mps 731 mmHg 24%
    14:00 +41°C° 0 mm 1 mps 731 mmHg 25%
    15:00 +40°C° 0 mm 1 mps 730 mmHg 26%
    16:00 +39°C° 0 mm 1 mps 729 mmHg 26%
    17:00 +36°C° 0 mm 1 mps 729 mmHg 30%
    18:00 +34°C° 0 mm 1 mps 729 mmHg 34%
    19:00 +33°C° 0 mm 1 mps 730 mmHg 38%
    20:00 +31°C° 0.1 mm 1 mps 730 mmHg 46%
    21:00 +30°C° 0.1 mm 1 mps 731 mmHg 53%
    22:00 +28°C° 0.1 mm 1 mps 732 mmHg 60%
    23:00 +28°C° 0 mm 1 mps 731 mmHg 64%

    27 February, Wednesday

    Time Temperature Precipitation Wind Pressure Humidity
    00:00 +27°C° 0 mm 1 mps 731 mmHg 67%
    01:00 +26°C° 0 mm 1 mps 731 mmHg 71%
    02:00 +26°C° 0 mm 1 mps 731 mmHg 71%
    03:00 +25°C° 0 mm 1 mps 730 mmHg 72%
    04:00 +25°C° 0 mm 1 mps 730 mmHg 72%
    05:00 +23°C° 0 mm 0 mps 730 mmHg 72%
    06:00 +23°C° 0 mm 0 mps 731 mmHg 72%
    07:00 +22°C° 0 mm 0 mps 731 mmHg 71%
    08:00 +26°C° 0 mm 0 mps 732 mmHg 60%
    09:00 +32°C° 0 mm 1 mps 732 mmHg 48%
    10:00 +35°C° 0 mm 1 mps 733 mmHg 37%
    11:00 +37°C° 0 mm 1 mps 732 mmHg 33%
    12:00 +40°C° 0 mm 1 mps 732 mmHg 29%
    13:00 +42°C° 0 mm 1 mps 731 mmHg 25%
    14:00 +41°C° 0 mm 1 mps 730 mmHg 26%
    15:00 +39°C° 0 mm 1 mps 730 mmHg 28%
    16:00 +37°C° 0 mm 1 mps 729 mmHg 29%
    17:00 +35°C° 0 mm 1 mps 729 mmHg 33%
    18:00 +34°C° 0 mm 1 mps 730 mmHg 38%
    19:00 +30°C° 0 mm 0 mps 730 mmHg 43%
    20:00 +29°C° 0.1 mm 0 mps 731 mmHg 49%
    21:00 +30°C° 0.1 mm 1 mps 731 mmHg 56%
    22:00 +29°C° 0.1 mm 1 mps 732 mmHg 62%
    23:00 +28°C° 0 mm 1 mps 731 mmHg 66%

    28 February, Thursday

    Time Temperature Precipitation Wind Pressure Humidity
    00:00 +27°C° 0 mm 1 mps 731 mmHg 70%
    01:00 +26°C° 0 mm 1 mps 731 mmHg 73%
    02:00 +25°C° 0 mm 1 mps 730 mmHg 75%
    03:00 +25°C° 0 mm 1 mps 730 mmHg 77%
    04:00 +24°C° 0 mm 1 mps 729 mmHg 78%
    05:00 +24°C° 0 mm 1 mps 730 mmHg 78%
    06:00 +24°C° 0 mm 1 mps 730 mmHg 78%
    07:00 +24°C° 0 mm 1 mps 730 mmHg 78%
    08:00 +27°C° 0 mm 1 mps 731 mmHg 65%
    09:00 +30°C° 0 mm 1 mps 732 mmHg 53%
    10:00 +33°C° 0 mm 1 mps 732 mmHg 40%
    11:00 +35°C° 0 mm 1 mps 731 mmHg 37%
    12:00 +37°C° 0 mm 2 mps 731 mmHg 33%
    13:00 +39°C° 0 mm 2 mps 730 mmHg 29%
    14:00 +38°C° 0 mm 2 mps 730 mmHg 31%
    15:00 +37°C° 0 mm 2 mps 729 mmHg 33%
    16:00 +36°C° 0 mm 3 mps 729 mmHg 35%
    17:00 +35°C° 0 mm 3 mps 729 mmHg 40%
    18:00 +34°C° 0 mm 2 mps 730 mmHg 45%
    19:00 +31°C° 0 mm 2 mps 730 mmHg 50%
    20:00 +30°C° 0 mm 2 mps 730 mmHg 55%
    21:00 +29°C° 0 mm 1 mps 731 mmHg 59%
    22:00 +27°C° 0 mm 1 mps 731 mmHg 63%
    23:00 +27°C° 0 mm 1 mps 731 mmHg 66%
    Show more